TimeAKDT,TemperatureF,Dew PointF,Humidity,Sea Level PressureIn,VisibilityMPH,Wind Direction,Wind SpeedMPH,Gust SpeedMPH,PrecipitationIn,Events,Conditions,WindDirDegrees,DateUTC
12:53 AM,24.1,16.0,71,30.02,10.0,NW,8.1,-,N/A,,Overcast,310,2012-10-19 08:53:00
1:51 AM,23.0,15.8,74,29.98,10.0,WNW,6.9,-,N/A,,Overcast,300,2012-10-19 09:51:00
1:53 AM,23.0,16.0,74,30.03,10.0,WNW,6.9,-,N/A,,Overcast,300,2012-10-19 09:53:00
2:53 AM,23.0,17.1,78,30.04,10.0,West,5.8,-,N/A,,Overcast,280,2012-10-19 10:53:00
3:01 AM,23.0,17.6,80,29.99,10.0,West,4.6,-,N/A,,Overcast,280,2012-10-19 11:01:00
3:33 AM,23.0,17.6,80,30.00,10.0,WNW,4.6,-,N/A,,Overcast,290,2012-10-19 11:33:00
3:53 AM,23.0,17.1,78,30.05,8.0,WNW,5.8,-,0.00,Snow,Light Snow,290,2012-10-19 11:53:00
4:10 AM,23.0,17.6,80,30.00,8.0,West,4.6,-,0.00,Snow,Light Snow,280,2012-10-19 12:10:00
4:39 AM,23.0,17.6,80,30.01,10.0,West,4.6,-,0.00,,Overcast,280,2012-10-19 12:39:00
4:53 AM,23.0,17.1,78,30.05,10.0,WNW,5.8,-,0.00,,Overcast,300,2012-10-19 12:53:00
5:05 AM,23.0,17.6,80,30.01,10.0,WNW,4.6,-,N/A,,Overcast,290,2012-10-19 13:05:00
5:53 AM,23.0,17.1,78,30.07,10.0,WNW,3.5,-,N/A,,Overcast,290,2012-10-19 13:53:00
6:17 AM,23.0,17.6,80,30.03,10.0,WNW,4.6,-,N/A,,Overcast,300,2012-10-19 14:17:00
6:25 AM,23.0,17.6,80,30.03,9.0,NW,4.6,-,N/A,,Overcast,310,2012-10-19 14:25:00
6:53 AM,23.0,17.1,78,30.08,9.0,West,4.6,-,0.00,,Overcast,280,2012-10-19 14:53:00
7:53 AM,21.9,17.1,82,30.09,10.0,West,4.6,-,N/A,,Overcast,260,2012-10-19 15:53:00
8:53 AM,21.0,17.1,85,30.11,10.0,Calm,Calm,-,N/A,,Overcast,0,2012-10-19 16:53:00
9:53 AM,21.9,17.1,82,30.13,10.0,Calm,Calm,-,N/A,,Overcast,0,2012-10-19 17:53:00
10:53 AM,24.1,16.0,71,30.15,10.0,West,4.6,-,N/A,,Overcast,270,2012-10-19 18:53:00
11:53 AM,24.1,16.0,71,30.16,10.0,WNW,6.9,-,N/A,,Overcast,300,2012-10-19 19:53:00
12:53 PM,25.0,17.1,72,30.16,10.0,NW,9.2,-,N/A,,Overcast,320,2012-10-19 20:53:00
1:53 PM,25.0,17.1,72,30.16,10.0,Variable,4.6,-,N/A,,Overcast,0,2012-10-19 21:53:00
2:53 PM,24.1,16.0,71,30.17,10.0,West,9.2,-,N/A,,Overcast,280,2012-10-19 22:53:00
3:53 PM,24.1,16.0,71,30.19,10.0,WNW,8.1,-,N/A,,Overcast,290,2012-10-19 23:53:00
4:53 PM,23.0,15.1,72,30.20,10.0,WNW,9.2,-,N/A,,Overcast,290,2012-10-20 00:53:00
5:53 PM,21.9,15.1,75,30.22,10.0,Variable,3.5,-,N/A,,Overcast,0,2012-10-20 01:53:00
6:10 PM,21.2,15.8,80,30.18,10.0,WNW,3.5,-,N/A,,Overcast,300,2012-10-20 02:10:00
6:53 PM,21.9,15.1,75,30.23,10.0,WNW,5.8,-,N/A,,Overcast,300,2012-10-20 02:53:00
7:53 PM,21.9,15.1,75,30.25,10.0,NW,5.8,-,N/A,,Overcast,310,2012-10-20 03:53:00
8:53 PM,21.9,15.1,75,30.27,10.0,WNW,5.8,-,N/A,,Overcast,300,2012-10-20 04:53:00
9:53 PM,21.9,16.0,78,30.28,10.0,NNW,6.9,-,N/A,,Overcast,330,2012-10-20 05:53:00
10:53 PM,21.0,15.1,78,30.30,9.0,WNW,4.6,-,0.00,Snow,Light Snow,290,2012-10-20 06:53:00
11:53 PM,21.0,15.1,78,30.31,7.0,WNW,5.8,-,0.00,Snow,Light Snow,290,2012-10-20 07:53:00